This is the latest recevied weather packets stored in our database for station/object KO4LFZ. If no packets are shown the sender has not sent any weather packets the latest 1 day(s).
| Time | Temp. | Humidity | Pressure | Rain* | Wind** | Luminosity | Snow |
|---|---|---|---|---|---|---|---|
| 1778044188 | 10.56° C | 99% | 1008.3 hPa | 0 mm | - | 0 W/m² | - |
| 1778043280 | 10.56° C | 99% | 1008.6 hPa | 1.78 mm | - | 0 W/m² | - |
| 1778042675 | 10.56° C | 99% | 1008.1 hPa | 3.05 mm | - | 0 W/m² | - |
| 1778042069 | 11.11° C | 99% | 1008.2 hPa | 4.32 mm | - | 0 W/m² | - |
| 1778041466 | 11.11° C | 99% | 1007.9 hPa | 4.83 mm | - | 0 W/m² | - |
| 1778041163 | 11.11° C | 99% | 1008.3 hPa | 7.87 mm | - | 0 W/m² | - |
| 1778040861 | 11.67° C | 99% | 1008.7 hPa | 7.11 mm | - | 0 W/m² | - |
| 1778040558 | 11.67° C | 99% | 1008.7 hPa | 3.05 mm | - | 0 W/m² | - |
| 1778040255 | 11.67° C | 99% | 1008.6 hPa | 0 mm | - | 0 W/m² | - |
| 1778039951 | 11.67° C | 99% | 1008.3 hPa | 0 mm | - | 0 W/m² | - |
| 1778039649 | 11.67° C | 99% | 1008.5 hPa | 0 mm | - | 0 W/m² | - |
| 1778039345 | 11.67° C | 99% | 1008.3 hPa | 0 mm | - | 0 W/m² | - |
| 1778039043 | 12.22° C | 99% | 1008.2 hPa | 0 mm | - | 0 W/m² | - |
| 1778038740 | 12.22° C | 99% | 1008 hPa | 0 mm | - | 0 W/m² | - |
| 1778038437 | 12.22° C | 99% | 1007.8 hPa | 0 mm | - | 0 W/m² | - |
| 1778038134 | 12.78° C | 99% | 1007.8 hPa | 0 mm | - | 0 W/m² | - |
| 1778037225 | 13.33° C | 99% | 1007.7 hPa | 0 mm | - | 0 W/m² | - |
| 1778036317 | 13.89° C | 99% | 1007.4 hPa | 6.1 mm | - | 0 W/m² | - |
| 1778036013 | 15° C | 99% | 1007 hPa | 7.87 mm | - | 0 W/m² | - |
| 1778035710 | 15° C | 99% | 1007 hPa | 7.87 mm | - | 0 W/m² | - |
| 1778035407 | 15° C | 99% | 1006.6 hPa | 10.67 mm | - | 0 W/m² | - |
| 1778035103 | 15.56° C | 99% | 1006.5 hPa | 8.89 mm | - | 0 W/m² | - |
| 1778034800 | 16.11° C | 99% | 1006.6 hPa | 10.67 mm | - | 0 W/m² | - |
| 1778034497 | 17.22° C | 99% | 1006.4 hPa | 6.1 mm | - | 0 W/m² | - |
| 1778034195 | 17.22° C | 99% | 1006 hPa | 6.1 mm | - | 0 W/m² | - |
* Rain latest hour (hover to see other rain measurements)
** Current wind speed in m/s (hover to see current wind gust speed)